Weather History for Valparaiso, FL

Change the Weather History Date:

Thursday, June 20, 2013

  Actual Average Record
Temperature  
Mean Temperature 80 °F -  
Max Temperature 87 °F 90 °F 99 °F (1969)
Min Temperature 72 °F 69 °F 62 °F (1955)
Cooling Degree Days 15    
Growing Degree Days 30 (Base 50)    
Moisture  
Dew Point 72 °F    
Average Humidity 78    
Maximum Humidity 97    
Minimum Humidity 62    
Precipitation  
Precipitation 0.31 in - - ()
Sea Level Pressure  
Sea Level Pressure 30.07 in    
Wind  
Wind Speed 4 mph (NNE)    
Max Wind Speed 12 mph    
Max Gust Speed -    
Visibility 9 miles    
Events Rain , Thunderstorm    
Averages and records for this station are not official NWS values.
T = Trace of Precipitation, MM = Missing Value Source: NWS Daily Summary

Daily Weather History Graph

Daily Weather History Graph

Search for Another Location

Airport:

Trip Planner

Search our weather history database for the weather conditions in past years. The results will help you decide how hot, cold, wet, or windy it might be!

Date:

Astronomy

Jun. 20, 2013 Rise Set
Actual Time 5:44 AM CDT 7:51 PM CDT
Civil Twilight 5:16 AM CDT 8:18 PM CDT
Nautical Twilight 4:42 AM CDT 8:52 PM CDT
Astronomical Twilight 4:06 AM CDT 9:28 PM CDT
Moon 4:59 PM CDT 3:01 AM CDT
Length of Visible Light 15h 02m
Length of Day
14h 07m
Waxing Gibbous, 89% of the Moon is Illuminated
Jun 20
Waxing Gibbous
Jun 23
Full
Jun 29
Last Quarter
Jul 8
New
Jul 15
First Quarter

Hourly Weather History & Observations

Time (CDT) Temp. Heat Index Dew Point Humidity Pressure Visibility Wind Dir Wind Speed Gust Speed Precip Events Conditions
12:55 AM 77.0 °F - 71.6 °F 83% 30.05 in 10.0 mi North 2.3 mph - N/A   Partly Cloudy
1:55 AM 74.8 °F - 71.4 °F 89% 30.04 in 10.0 mi NNE 2.3 mph - N/A   Partly Cloudy
2:49 AM 75.2 °F - 71.6 °F 89% 30.01 in 10.0 mi North 2.3 mph - N/A Thunderstorm Thunderstorm
2:55 AM 74.8 °F - 71.6 °F 90% 30.03 in 10.0 mi NE 2.3 mph - N/A Thunderstorm Mostly Cloudy
3:18 AM 75.2 °F - 71.6 °F 89% 30.01 in 10.0 mi North 2.3 mph - N/A   Mostly Cloudy
3:55 AM 74.8 °F - 71.6 °F 90% 30.03 in 10.0 mi NNW 2.3 mph - N/A   Mostly Cloudy
4:03 AM 75.2 °F - 71.6 °F 89% 30.02 in 7.0 mi NW 9.2 mph - N/A   Mostly Cloudy
4:08 AM 77.0 °F - 71.6 °F 83% 30.02 in 6.0 mi North 5.8 mph - N/A Rain Light Rain
4:23 AM 77.0 °F - 73.4 °F 89% 30.03 in 6.0 mi North 3.5 mph - N/A Rain , Thunderstorm Light Thunderstorms and Rain
4:48 AM 75.2 °F - 73.4 °F 94% 30.03 in 10.0 mi East 4.6 mph - N/A Rain Light Rain
4:55 AM 74.7 °F - 72.5 °F 93% 30.05 in 10.0 mi East 4.6 mph - 0.06 in Rain Light Rain
5:08 AM 75.2 °F - 71.6 °F 89% 30.04 in 10.0 mi ESE 1.2 mph - N/A Thunderstorm Mostly Cloudy
5:20 AM 75.2 °F - 71.6 °F 89% 30.04 in 10.0 mi NNE 2.3 mph - N/A   Mostly Cloudy
5:55 AM 74.1 °F - 72.7 °F 95% 30.06 in 10.0 mi NNW 2.3 mph - 0.00 in   Scattered Clouds
6:55 AM 75.0 °F - 72.3 °F 91% 30.08 in 10.0 mi NNW 2.3 mph - N/A   Scattered Clouds
7:55 AM 79.0 °F - 73.6 °F 83% 30.10 in 10.0 mi NNE 5.8 mph - N/A   Partly Cloudy
8:55 AM 82.0 °F 87.7 °F 73.2 °F 75% 30.12 in 10.0 mi NNE 5.8 mph - N/A   Scattered Clouds
9:25 AM 84.2 °F 90.9 °F 73.4 °F 70% 30.10 in - NNE 3.5 mph - N/A   Light Drizzle
9:37 AM 84.2 °F 90.9 °F 73.4 °F 70% 30.10 in 10.0 mi North 3.5 mph - N/A   Partly Cloudy
9:55 AM 84.6 °F 90.3 °F 72.0 °F 66% 30.11 in 10.0 mi East 4.6 mph - N/A   Mostly Cloudy
9:56 AM 84.2 °F 89.6 °F 71.6 °F 66% 30.10 in 10.0 mi East 3.5 mph - N/A   Mostly Cloudy
10:55 AM 84.7 °F 92.1 °F 73.9 °F 70% 30.11 in 10.0 mi ESE 4.6 mph - N/A   Mostly Cloudy
10:56 AM 84.2 °F 90.9 °F 73.4 °F 70% 30.10 in 10.0 mi NE 1.2 mph - N/A   Mostly Cloudy
11:14 AM 84.2 °F 92.3 °F 75.2 °F 74% 30.10 in 5.0 mi Variable 3.5 mph - N/A   Haze
11:18 AM 84.2 °F 90.9 °F 73.4 °F 70% 30.10 in 10.0 mi WNW 2.3 mph - N/A Rain Light Rain Showers
11:19 AM 84.2 °F 90.9 °F 73.4 °F 70% 30.10 in 1.8 mi West 2.3 mph - N/A   Haze
11:20 AM 84.2 °F 90.9 °F 73.4 °F 70% 30.10 in 1.5 mi West 2.3 mph - N/A   Haze
11:22 AM 82.4 °F 88.2 °F 73.4 °F 74% 30.10 in 1.2 mi SW 2.3 mph - N/A   Light Drizzle
11:23 AM 82.4 °F 88.2 °F 73.4 °F 74% 30.10 in 1.5 mi SW 1.2 mph - N/A   Light Drizzle
11:24 AM 82.4 °F 88.2 °F 73.4 °F 74% 30.10 in 1.5 mi SW 2.3 mph - N/A Rain Light Rain
11:28 AM 82.4 °F 89.5 °F 75.2 °F 79% 30.10 in 2.5 mi SE 4.6 mph - N/A Rain Light Rain
11:35 AM 82.4 °F 88.2 °F 73.4 °F 74% 30.10 in 10.0 mi SSE 5.8 mph - N/A   Mostly Cloudy
11:55 AM 85.3 °F 93.4 °F 74.3 °F 70% 30.10 in 10.0 mi ESE 9.2 mph - 0.00 in   Mostly Cloudy
12:55 PM 86.9 °F 93.7 °F 72.7 °F 62% 30.09 in 10.0 mi SE 6.9 mph - N/A   Mostly Cloudy
12:56 PM 86.0 °F 93.4 °F 73.4 °F 66% 30.08 in 10.0 mi SE 6.9 mph - N/A   Mostly Cloudy
1:56 PM 85.8 °F 93.4 °F 73.9 °F 67% 30.07 in 10.0 mi SW 5.8 mph - N/A   Mostly Cloudy
2:25 PM 86.0 °F 93.4 °F 73.4 °F 66% 30.06 in 10.0 mi South 9.2 mph - N/A Thunderstorm Thunderstorm
2:55 PM 86.9 °F 94.5 °F 73.4 °F 64% 30.07 in 10.0 mi South 8.1 mph - N/A Thunderstorm Thunderstorm
3:30 PM 84.2 °F 90.9 °F 73.4 °F 70% 30.05 in 10.0 mi SW 6.9 mph - N/A Rain , Thunderstorm Light Thunderstorms and Rain
3:50 PM 84.2 °F 89.6 °F 71.6 °F 66% 30.05 in 10.0 mi West 4.6 mph - N/A Thunderstorm Thunderstorm
3:55 PM 82.0 °F 85.9 °F 70.2 °F 67% 30.06 in 10.0 mi WSW 3.5 mph - 0.00 in Thunderstorm Thunderstorm
5:57 PM 78.8 °F - 72.1 °F 80% 30.07 in 10.0 mi WNW 4.6 mph - 0.00 in Thunderstorm Thunderstorm
6:55 PM 79.2 °F - 71.1 °F 76% 30.07 in 10.0 mi Calm Calm - N/A Thunderstorm Thunderstorm
7:31 PM 78.8 °F - 69.8 °F 74% 30.06 in 10.0 mi North 5.8 mph - N/A Thunderstorm Thunderstorm
7:37 PM 78.8 °F - 69.8 °F 74% 30.07 in 10.0 mi North 5.8 mph - N/A Thunderstorm Thunderstorm
7:55 PM 79.0 °F - 68.4 °F 70% 30.09 in 10.0 mi ENE 11.5 mph - N/A Thunderstorm Thunderstorm
8:10 PM 77.0 °F - 68.0 °F 74% 30.08 in 10.0 mi East 9.2 mph - N/A Rain , Thunderstorm Light Thunderstorms and Rain
8:20 PM 75.2 °F - 69.8 °F 83% 30.08 in 3.0 mi ESE 9.2 mph - N/A Rain , Thunderstorm Light Thunderstorms and Rain
8:48 PM 75.2 °F - 71.6 °F 89% 30.07 in 10.0 mi SE 3.5 mph - N/A   Mostly Cloudy
8:55 PM 75.0 °F - 71.4 °F 89% 30.09 in 10.0 mi SSW 4.6 mph - 0.25 in   Mostly Cloudy
9:56 PM 76.8 °F - 73.0 °F 88% 30.09 in 10.0 mi Calm Calm - N/A   Mostly Cloudy
10:55 PM 74.3 °F - 72.0 °F 92% 30.09 in 10.0 mi Calm Calm - N/A   Mostly Cloudy
11:55 PM 72.7 °F - 71.8 °F 97% 30.10 in 10.0 mi North 3.5 mph - N/A   Mostly Cloudy